Escanaba, MI

5:48 AM EST on February 24, 2018 (GMT -0500)
Delta County

Weather History for KESC - November, 2012

Change the Weather History Date:

Saturday, November 10, 2012

  Actual Average Record
Temperature  
Mean Temperature 44 °F -  
Max Temperature 51 °F 42 °F 71 °F (2016)
Min Temperature 37 °F 31 °F 10 °F (2017)
Degree Days  
Heating Degree Days 22    
Moisture  
Dew Point 40 °F    
Average Humidity 85    
Maximum Humidity 93    
Minimum Humidity 70    
Precipitation  
Precipitation 0.29 in - - ()
Sea Level Pressure  
Sea Level Pressure 29.97 in    
Wind  
Wind Speed 11 mph (East)    
Max Wind Speed 22 mph    
Max Gust Speed 30 mph    
Visibility 5 miles    
Events      
Averages and records for this station are not official NWS values.
T = Trace of Precipitation, MM = Missing Value Source: NWS Daily Summary

Daily Weather History Graph

Daily Weather History Graph

Search for Another Location

Airport or City:

Trip Planner

Search our weather history database for the weather conditions in past years. The results will help you decide how hot, cold, wet, or windy it might be!

Date:

Astronomy

Nov. 10, 2012 Rise Set
Actual Time 7:41 AM EST 5:22 PM EST
Civil Twilight 7:09 AM EST 5:54 PM EST
Nautical Twilight 6:34 AM EST 6:29 PM EST
Astronomical Twilight 5:59 AM EST 7:04 PM EST
Moon 3:35 AM EST (11/10) 3:17 PM EST (11/10)
Length of Visible Light 10h 44m
Length of Day
9h 40m
Waning Crescent, 14% of the Moon is Illuminated
Nov 10
Waning Crescent
Nov 13
New
Nov 20
First Quarter
Nov 28
Full
Dec 6
Last Quarter

Hourly Weather History & Observations

Time (EST) Temp. Windchill Dew Point Humidity Pressure Visibility Wind Dir Wind Speed Gust Speed Precip Events Conditions
12:15 AM 37.4 °F 31.4 °F 30.2 °F 75% 30.16 in 10.0 mi NE 8.1 mph - N/A   Overcast
12:35 AM 37.4 °F 33.8 °F 30.2 °F 75% 30.17 in 10.0 mi NNE 4.6 mph - N/A   Overcast
12:55 AM 37.4 °F 33.8 °F 30.2 °F 75% 30.17 in 10.0 mi North 4.6 mph - N/A   Overcast
1:35 AM 37.4 °F 33.8 °F 30.2 °F 75% 30.17 in 10.0 mi NNE 4.6 mph - N/A   Overcast
1:55 AM 37.4 °F 32.1 °F 30.2 °F 75% 30.16 in 10.0 mi NNE 6.9 mph - N/A   Overcast
2:15 AM 37.4 °F 32.1 °F 30.2 °F 75% 30.16 in 10.0 mi NNE 6.9 mph - N/A   Overcast
2:35 AM 37.4 °F 32.1 °F 30.2 °F 75% 30.15 in 10.0 mi NNE 6.9 mph - N/A   Overcast
2:55 AM 37.4 °F 32.8 °F 30.2 °F 75% 30.14 in 10.0 mi NE 5.8 mph - N/A   Overcast
3:15 AM 37.4 °F 32.1 °F 30.2 °F 75% 30.14 in 10.0 mi NE 6.9 mph - N/A   Overcast
3:55 AM 39.2 °F 33.6 °F 30.2 °F 70% 30.13 in 10.0 mi NE 8.1 mph - N/A   Overcast
4:15 AM 39.2 °F 34.2 °F 32.0 °F 75% 30.12 in 10.0 mi NE 6.9 mph - N/A   Overcast
4:35 AM 39.2 °F 35.0 °F 32.0 °F 75% 30.12 in 10.0 mi NNE 5.8 mph - N/A   Overcast
4:55 AM 39.2 °F 35.0 °F 32.0 °F 75% 30.11 in 10.0 mi ENE 5.8 mph - N/A   Overcast
5:15 AM 39.2 °F 33.6 °F 33.8 °F 81% 30.10 in 10.0 mi ENE 8.1 mph - N/A   Overcast
5:35 AM 39.2 °F 34.2 °F 33.8 °F 81% 30.10 in 10.0 mi NE 6.9 mph - N/A   Overcast
5:55 AM 39.2 °F 34.2 °F 33.8 °F 81% 30.09 in 10.0 mi ENE 6.9 mph - N/A   Overcast
6:15 AM 41.0 °F 36.4 °F 35.6 °F 81% 30.09 in 10.0 mi ENE 6.9 mph - N/A   Overcast
7:35 AM 44.6 °F 38.1 °F 39.2 °F 81% 30.06 in 10.0 mi East 13.8 mph - N/A   Overcast
7:55 AM 44.6 °F 37.8 °F 39.2 °F 81% 30.06 in 10.0 mi East 15.0 mph - N/A   Overcast
8:15 AM 44.6 °F 38.4 °F 41.0 °F 87% 30.06 in 10.0 mi East 12.7 mph - N/A   Overcast
8:35 AM 44.6 °F 37.8 °F 41.0 °F 87% 30.06 in 7.0 mi East 15.0 mph - N/A   Overcast
8:55 AM 44.6 °F 38.1 °F 41.0 °F 87% 30.07 in 4.0 mi ESE 13.8 mph - N/A   Overcast
9:15 AM 44.6 °F 37.4 °F 42.8 °F 93% 30.08 in 3.0 mi ESE 16.1 mph 20.7 mph 0.02 in   Overcast
9:35 AM 44.6 °F 36.9 °F 41.0 °F 87% 30.06 in 3.0 mi ESE 18.4 mph - 0.05 in   Overcast
9:55 AM 44.6 °F 37.4 °F 42.8 °F 93% 30.05 in 2.5 mi East 16.1 mph 21.9 mph 0.09 in   Overcast
10:15 AM 44.6 °F 36.9 °F 41.0 °F 87% 30.04 in 2.0 mi ESE 18.4 mph - N/A   Overcast
10:35 AM 44.6 °F 37.2 °F 42.8 °F 93% 30.04 in 2.5 mi ESE 17.3 mph - 0.01 in   Overcast
10:55 AM 44.6 °F 36.1 °F 42.8 °F 93% 30.01 in 1.8 mi ESE 21.9 mph 25.3 mph 0.07 in   Overcast
11:15 AM 44.6 °F 37.4 °F 42.8 °F 93% 30.03 in 2.5 mi ESE 16.1 mph 23.0 mph 0.04 in   Overcast
11:35 AM 44.6 °F 36.9 °F 42.8 °F 93% 30.01 in 1.5 mi ESE 18.4 mph - 0.05 in   Overcast
11:55 AM 44.6 °F 37.2 °F 42.8 °F 93% 30.00 in 1.2 mi ESE 17.3 mph - 0.05 in   Overcast
12:15 PM 46.4 °F 39.5 °F 42.8 °F 87% 29.99 in 1.5 mi ESE 17.3 mph 24.2 mph 0.02 in   Overcast
12:35 PM 46.4 °F 39.0 °F 42.8 °F 87% 29.97 in 1.8 mi ESE 19.6 mph 24.2 mph 0.04 in   Overcast
12:55 PM 46.4 °F 38.7 °F 42.8 °F 87% 29.95 in 2.0 mi ESE 20.7 mph 28.8 mph 0.04 in   Overcast
1:15 PM 46.4 °F 39.2 °F 42.8 °F 87% 29.94 in 2.0 mi ESE 18.4 mph 26.5 mph 0.01 in   Overcast
1:35 PM 46.4 °F 38.5 °F 42.8 °F 87% 29.93 in 2.0 mi ESE 21.9 mph 27.6 mph 0.01 in   Overcast
1:55 PM 46.4 °F 38.7 °F 42.8 °F 87% 29.92 in 2.0 mi ESE 20.7 mph 29.9 mph 0.01 in   Overcast
2:15 PM 46.4 °F 38.7 °F 42.8 °F 87% 29.91 in 2.5 mi ESE 20.7 mph 26.5 mph N/A   Overcast
2:35 PM 46.4 °F 39.2 °F 42.8 °F 87% 29.91 in 3.0 mi ESE 18.4 mph - N/A   Overcast
2:55 PM 46.4 °F 38.7 °F 42.8 °F 87% 29.89 in 2.5 mi ESE 20.7 mph 25.3 mph N/A   Overcast
3:15 PM 46.4 °F 39.0 °F 42.8 °F 87% 29.88 in 2.5 mi ESE 19.6 mph 24.2 mph N/A   Overcast
3:35 PM 46.4 °F 39.0 °F 42.8 °F 87% 29.88 in 2.0 mi ESE 19.6 mph 25.3 mph N/A   Overcast
3:55 PM 46.4 °F 38.7 °F 42.8 °F 87% 29.86 in 2.0 mi ESE 20.7 mph 24.2 mph 0.01 in   Overcast
4:15 PM 46.4 °F 39.2 °F 42.8 °F 87% 29.86 in 2.5 mi ESE 18.4 mph 25.3 mph N/A   Overcast
4:35 PM 46.4 °F 39.2 °F 42.8 °F 87% 29.84 in 2.0 mi ESE 18.4 mph 23.0 mph N/A   Overcast
4:55 PM 46.4 °F 39.0 °F 42.8 °F 87% 29.83 in 3.0 mi ESE 19.6 mph 25.3 mph N/A   Overcast
5:15 PM 46.4 °F 39.5 °F 42.8 °F 87% 29.84 in 3.0 mi ESE 17.3 mph 24.2 mph 0.01 in   Overcast
5:35 PM 46.4 °F 39.5 °F 44.6 °F 93% 29.84 in 3.0 mi ESE 17.3 mph 24.2 mph 0.01 in   Overcast
5:55 PM 46.4 °F 40.4 °F 44.6 °F 93% 29.84 in 4.0 mi ESE 13.8 mph - 0.01 in   Overcast
6:15 PM 48.2 °F - 44.6 °F 87% 29.84 in 4.0 mi ESE 13.8 mph 18.4 mph N/A   Overcast
6:35 PM 48.2 °F - 44.6 °F 87% 29.85 in 4.0 mi ESE 11.5 mph - N/A   Overcast
6:55 PM 48.2 °F - 44.6 °F 87% 29.85 in 4.0 mi ESE 11.5 mph - N/A   Overcast
7:15 PM 48.2 °F - 44.6 °F 87% 29.86 in 4.0 mi SE 10.4 mph 16.1 mph N/A   Overcast
7:35 PM 48.2 °F - 44.6 °F 87% 29.85 in 3.0 mi ESE 8.1 mph - N/A   Overcast
7:55 PM 48.2 °F - 44.6 °F 87% 29.84 in 3.0 mi ESE 11.5 mph - N/A   Overcast
8:15 PM 48.2 °F - 44.6 °F 87% 29.83 in 3.0 mi ESE 10.4 mph - N/A   Overcast
8:35 PM 48.2 °F - 44.6 °F 87% 29.83 in 3.0 mi ESE 9.2 mph - N/A   Overcast
8:55 PM 48.2 °F - 44.6 °F 87% 29.81 in 3.0 mi ESE 10.4 mph - N/A   Overcast
9:15 PM 48.2 °F - 44.6 °F 87% 29.80 in 3.0 mi ESE 9.2 mph - N/A   Partly Cloudy
9:55 PM 46.4 °F 42.9 °F 42.8 °F 87% 29.80 in 3.0 mi ESE 6.9 mph - N/A   Clear
10:15 PM 46.4 °F 43.5 °F 42.8 °F 87% 29.79 in 3.0 mi ESE 5.8 mph - N/A   Clear
10:35 PM 46.4 °F 44.3 °F 44.6 °F 93% 29.79 in 3.0 mi ESE 4.6 mph - N/A   Clear
11:15 PM 48.2 °F - 46.4 °F 93% 29.80 in 4.0 mi SSE 3.5 mph - N/A   Overcast
11:35 PM 50.0 °F - 46.4 °F 87% 29.79 in 5.0 mi SSE 5.8 mph - 0.01 in   Overcast
11:55 PM 50.0 °F - 46.4 °F 87% 29.78 in 6.0 mi ESE 3.5 mph - 0.01 in   Overcast